Regional Weather Roundup
Issued by NWS

Home | Current Version | Previous Version | Text Only | Print | Product List | Glossary Off
Versions: 1 2 3 4 5 6 7 8 9 10 11 12 13 14 15 16 17 18 19 20 21 22 23 24 25 26 27 28 29 30 31 32 33 34 35 36 37 38 39 40 41 42 43 44 45 46 47 48 49 50

000
ASUS43 KOAX 240010
RWRNE

WEATHER ROUNDUP FOR NEBRASKA
NATIONAL WEATHER SERVICE OMAHA NE
700 PM CDT SAT MAY 23 2015

NOTES: SATELLITE DATA IS BEING USED TO AUGMENT CLOUD COVER ABOVE
       12000 FEET.
       "FAIR" INDICATES FEW OR NO CLOUDS BELOW 12,000 FEET WITH NO
       SIGNIFICANT WEATHER AND/OR OBSTRUCTIONS TO VISIBILITY.

  * THESE STATIONS DO NOT REPORT WEATHER SUCH AS RAIN...SNOW OR FOG.

NEZ001>004-019>022-054>056-240100-
NEBRASKA PANHANDLE

CITY           SKY/WX    TMP DP  RH WIND       PRES   REMARKS
SCOTTSBLUFF    LGT RAIN  55  50  83 SE13      29.93F
6HR MIN TEMP:  55; 6HR MAX TEMP:  60; 6HR PCP:  0.05;

ALLIANCE       CLOUDY    56  55  97 E10       29.94F
6HR MIN TEMP:  54; 6HR MAX TEMP:  57; 6HR PCP:  0.08;

CHADRON        CLOUDY    58  53  84 E8        29.96F
6HR MIN TEMP:  56; 6HR MAX TEMP:  61; 6HR PCP:  0.03;

KIMBALL          N/A    N/A N/A N/A MISG        N/A
SIDNEY         PTSUNNY   56  51  84 E9        29.93S
6HR MIN TEMP:  54; 6HR MAX TEMP:  57; 6HR PCP:  0.32;

$$

NEZ057>060-069>072-079>082-240100-
SOUTHWEST NEBRASKA

CITY           SKY/WX    TMP DP  RH WIND       PRES   REMARKS
NORTH PLATTE   CLOUDY    58  53  84 E17       29.97S
6HR MIN TEMP:  54; 6HR MAX TEMP:  62; 6HR PCP:  0.01;

IMPERIAL       CLOUDY    63  53  70 SE17      29.90F
6HR MIN TEMP:  57; 6HR MAX TEMP:  66;

LEXINGTON      CLOUDY    59  57  92 E14       29.97F
MCCOOK         CLOUDY    63  55  75 SE21      29.91F
6HR MIN TEMP:  59; 6HR MAX TEMP:  69;

OGALLALA       CLOUDY    59  54  82 E12       29.94F
$$

NEZ005>010-023>029-035>040-094-240100-
NORTH CENTRAL NEBRASKA

CITY           SKY/WX    TMP DP  RH WIND       PRES   REMARKS
VALENTINE      LGT RAIN  56  54  93 SE9       30.03F
6HR MIN TEMP:  56; 6HR MAX TEMP:  60; 6HR PCP:  0.04;

AINSWORTH      CLOUDY    56  55  97 SE12      30.03S
BROKEN BOW     LGT RAIN  58  55  90 E10       29.99F
6HR MIN TEMP:  54; 6HR MAX TEMP:  59; 6HR PCP: TRACE;

O`NEILL        CLOUDY    59  55  88 SE8       30.06S
ORD            CLOUDY    59  54  83 E10       30.00S
6HR MIN TEMP:  56; 6HR MAX TEMP:  59; 6HR PCP: TRACE;

THEDFORD       CLOUDY    57  55  91 E8        30.01F
$$

NEZ041-046>049-061>064-073>077-083>087-240100-
SOUTH CENTRAL NEBRASKA

CITY           SKY/WX    TMP DP  RH WIND       PRES   REMARKS
GRAND ISLAND   CLOUDY    60  55  83 E14G23    30.01R
6HR MIN TEMP:  57; 6HR MAX TEMP:  61; 6HR PCP: TRACE;

AURORA         CLOUDY    60  58  93 E16       30.00R
HASTINGS       CLOUDY    60  56  86 E14       29.99R
6HR MIN TEMP:  56; 6HR MAX TEMP:  61; 6HR PCP: TRACE;

HEBRON         CLOUDY    61  58  89 E8        29.98F
HOLDREGE       CLOUDY    59  56  88 E17       29.97F
KEARNEY *      CLOUDY    59  55  88 E16       29.99S
YORK           CLOUDY    59  57  94 E15       30.00F
$$

NEZ011>018-030>034-042>045-240100-
NORTHEAST NEBRASKA

CITY           SKY/WX    TMP DP  RH WIND       PRES   REMARKS
NORFOLK        CLOUDY    60  56  86 SE10      30.05F
6HR MIN TEMP:  58; 6HR MAX TEMP:  62; 6HR PCP: TRACE;

ALBION         CLOUDY    59  54  82 SE8       30.03F
BLAIR          CLOUDY    62  56  81 E6        30.06F
COLUMBUS *     CLOUDY    61  54  77 E9        30.08S
FREMONT        CLOUDY    64  57  79 E7        30.06F
TEKAMAH        CLOUDY    65  57  75 SE9       30.06F
6HR MIN TEMP:  62; 6HR MAX TEMP:  65; 6HR PCP: TRACE;

WAYNE          CLOUDY    60  57  88 S7        30.07F
$$

NEZ050>053-065>068-078-088>093-240100-
SOUTHEAST NEBRASKA

CITY           SKY/WX    TMP DP  RH WIND       PRES   REMARKS
LINCOLN        CLOUDY    62  60  93 E9        30.02F
6HR MIN TEMP:  60; 6HR MAX TEMP:  63; 6HR PCP:  0.09;

OMAHA EPPLEY   CLOUDY    65  58  78 E5        30.06F
6HR MIN TEMP:  62; 6HR MAX TEMP:  65;

BEATRICE       CLOUDY    61  60  96 E12       30.01F
FALLS CITY     HVY RAIN  62  60  93 SE8       30.06F FOG
6HR MIN TEMP:  62; 6HR MAX TEMP:  68; 6HR PCP:  0.14;

NEBRASKA CITY  LGT RAIN  62  62  99 SE6       30.06F
PLATTSMOUTH    LGT RAIN  62  59  91 E3        30.06F
$$

NEZ044-045-051>053-067-240100-
OMAHA AREA

CITY           SKY/WX    TMP DP  RH WIND       PRES   REMARKS
OMAHA EPPLEY   CLOUDY    65  58  78 E5        30.06F
6HR MIN TEMP:  62; 6HR MAX TEMP:  65;

BLAIR          CLOUDY    62  56  81 E6        30.06F
FREMONT        CLOUDY    64  57  79 E7        30.06F
MILLARD        RAIN      65  59  81 E5        30.06F
OFFUTT AFB     LGT RAIN  64  59  82 SE6       30.05F
PLATTSMOUTH    LGT RAIN  62  59  91 E3        30.06F
WAHOO          RAIN      62  59  90 E7        30.05F
$$



USA.gov is the U.S. government's official web portal to all federal, state and local government web resources and services.